QPF
0.00 0.00 0.00 0.00 0.00 0.00 0.00 0.00 0.00 0.00 0.00 0.00 0.00 0.00 0.00 0.00 0.00 0.00 0.00 0.00 0.03 0.08 0.15 0.07 0.07 0.04 0.12 0.16 0.12 0.07 0.04 0.02 0.01 0.01 0.00 0.00 0.00 0.00 0.00 0.00 0.00 0.00 0.00 0.00
0.00 0.00 0.00 0.00 0.00 0.00 0.00 0.00 0.00 0.00 0.00 0.00 0.00 0.00 0.00 0.00 0.00 0.00 0.00 0.00 0.00 0.07 0.05 0.05 0.03 0.02 0.07 0.10 0.05 0.02 0.01 0.00 0.00 0.00 0.00 0.00 0.00 0.00 0.00 0.00 0.00 0.00 0.00 0.00
0.00 0.00 0.00 0.00 0.00 0.00 0.00 0.00 0.00 0.00 0.00 0.00 0.00 0.00 0.00 0.00 0.00 0.00 0.00 0.00 0.00 0.00 0.00 0.00 0.00 0.00 0.00 0.00 0.01 0.00 0.00 0.00 0.00 0.00 0.00 0.01 0.02 0.02 0.01 0.00 0.00 0.00 0.00 0.00
0.00 0.00 0.00 0.00 0.00 0.00 0.00 0.00 0.00 0.00 0.00 0.00 0.00 0.00 0.00 0.00 0.00 0.00 0.00 0.00 0.00 0.00 0.00 0.00 0.01 0.01 0.01 0.02 0.02 0.02 0.00 0.00 0.00 0.01 0.02 0.02 0.04 0.03 0.01 0.01 0.00 0.00 0.00 0.00
0.00 0.00 0.00 0.00 0.00 0.00 0.00 0.00 0.00 0.00 0.00 0.00 0.00 0.00 0.00 0.00 0.00 0.00 0.00 0.00 0.00 0.00 0.00 0.00 0.00 0.00 0.01 0.00 0.00 0.00 0.00 0.00 0.01 0.01 0.01 0.02 0.01 0.01 0.00 0.00 0.00 0.00 0.00 0.00
0.00 0.00 0.00 0.00 0.00 0.00 0.00 0.00 0.00 0.00 0.00 0.00 0.00 0.00 0.00 0.00 0.00 0.01 0.00 0.00 0.00 0.00 0.00 0.00 0.00 0.00 0.00 0.00 0.00 0.00 0.00 0.01 0.00 0.00 0.00 0.00 0.00 0.00 0.00 0.00 0.00 0.00 0.00 0.00
0.00 0.00 0.00 0.00 0.00 0.00 0.00 0.00 0.00 0.00 0.00 0.00 0.00 0.00 0.00 0.00 0.00 0.00 0.00 0.00 0.00 0.01 0.00 0.00 0.00 0.00 0.00 0.02 0.03 0.03 0.01 0.00 0.00 0.00 0.00 0.00 0.00 0.00 0.00 0.00 0.00 0.00 0.00 0.00
0.00 0.00 0.00 0.00 0.00 0.00 0.00 0.00 0.00 0.00 0.00 0.00 0.00 0.00 0.00 0.00 0.00 0.00 0.00 0.00 0.00 0.00 0.00 0.00 0.01 0.01 0.02 0.03 0.02 0.01 0.00 0.00 0.00 0.00 0.00 0.00 0.00 0.00 0.00 0.00 0.00 0.00 0.00 0.00
0.00 0.00 0.00 0.00 0.00 0.00 0.00 0.00 0.00 0.00 0.00 0.00 0.00 0.00 0.02 0.00 0.02 0.02 0.00 0.00 0.00 0.00 0.00 0.01 0.01 0.01 0.00 0.00 0.00 0.00 0.00 0.00 0.00 0.00 0.00 0.00 0.00 0.00 0.00 0.00 0.00 0.00 0.00 0.00
0.00 0.00 0.00 0.00 0.00 0.00 0.00 0.00 0.00 0.00 0.00 0.00 0.00 0.00 0.01 0.00 0.00 0.02 0.00 0.00 0.00 0.00 0.00 0.00 0.00 0.00 0.00 0.00 0.00 0.00 0.00 0.00 0.00 0.00 0.00 0.00 0.00 0.00 0.00 0.01 0.01 0.00 0.00 0.00
0.00 0.00 0.00 0.00 0.00 0.00 0.00 0.00 0.00 0.00 0.00 0.00 0.00 0.00 0.00 0.00 0.00 0.01 0.01 0.00 0.00 0.00 0.00 0.00 0.00 0.00 0.00 0.00 0.00 0.00 0.00 0.00 0.00 0.00 0.00 0.00 0.00 0.00 0.00 0.00 0.00 0.00 0.00 0.01
0.00 0.00 0.00 0.00 0.00 0.00 0.00 0.00 0.00 0.00 0.00 0.00 0.00 0.00 0.00 0.00 0.00 0.00 0.00 0.00 0.00 0.00 0.00 0.00 0.00 0.00 0.00 0.00 0.00 0.00 0.00 0.00 0.00 0.00 0.00 0.00 0.00 0.00 0.00 0.00 0.01 0.04 0.04 0.05
0.00 0.00 0.00 0.00 0.00 0.00 0.00 0.00 0.00 0.00 0.00 0.00 0.00 0.01 0.01 0.00 0.00 0.00 0.00 0.00 0.00 0.00 0.00 0.00 0.00 0.00 0.00 0.00 0.00 0.00 0.00 0.00 0.00 0.00 0.00 0.00 0.01 0.01 0.03 0.03 0.04 0.05 0.05 0.06
0.00 0.00 0.00 0.00 0.00 0.00 0.00 0.00 0.00 0.00 0.00 0.00 0.00 0.01 0.00 0.00 0.00 0.00 0.00 0.00 0.00 0.00 0.00 0.00 0.00 0.00 0.00 0.00 0.00 0.00 0.00 0.00 0.00 0.00 0.00 0.02 0.03 0.02 0.02 0.03 0.02 0.01 0.01 0.02
0.00 0.00 0.00 0.00 0.00 0.00 0.00 0.00 0.00 0.00 0.00 0.01 0.00 0.01 0.00 0.00 0.00 0.00 0.00 0.01 0.00 0.01 0.00 0.00 0.00 0.00 0.00 0.00 0.00 0.00 0.00 0.01 0.00 0.01 0.03 0.03 0.02 0.01 0.02 0.02 0.02 0.02 0.02 0.04
0.00 0.00 0.00 0.00 0.00 0.00 0.00 0.00 0.00 0.00 0.00 0.00 0.01 0.02 0.00 0.00 0.00 0.00 0.01 0.00 0.00 0.00 0.00 0.00 0.00 0.00 0.00 0.00 0.00 0.00 0.00 0.00 0.00 0.01 0.02 0.01 0.00 0.01 0.05 0.06 0.05 0.05 0.04 0.03
0.00 0.00 0.00 0.00 0.00 0.00 0.02 0.00 0.00 0.01 0.01 0.02 0.04 0.01 0.00 0.00 0.00 0.00 0.00 0.00 0.00 0.00 0.00 0.00 0.00 0.00 0.00 0.00 0.00 0.02 0.01 0.00 0.00 0.01 0.00 0.00 0.01 0.04 0.07 0.06 0.06 0.04 0.01 0.01
0.00 0.00 0.00 0.00 0.00 0.02 0.04 0.00 0.00 0.01 0.01 0.01 0.00 0.00 0.00 0.00 0.00 0.00 0.00 0.00 0.00 0.00 0.00 0.00 0.00 0.00 0.00 0.00 0.03 0.03 0.01 0.00 0.00 0.00 0.01 0.02 0.04 0.06 0.05 0.04 0.02 0.01 0.01 0.02
0.00 0.00 0.01 0.01 0.04 0.03 0.03 0.00 0.00 0.02 0.05 0.01 0.00 0.00 0.00 0.00 0.00 0.01 0.00 0.00 0.00 0.00 0.00 0.00 0.00 0.00 0.01 0.02 0.02 0.01 0.00 0.00 0.01 0.01 0.02 0.03 0.05 0.02 0.01 0.00 0.00 0.01 0.02 0.02
0.00 0.00 0.02 0.05 0.06 0.07 0.08 0.01 0.00 0.01 0.05 0.00 0.00 0.00 0.00 0.00 0.00 0.00 0.00 0.00 0.00 0.00 0.00 0.00 0.00 0.00 0.01 0.00 0.00 0.00 0.01 0.01 0.03 0.02 0.01 0.04 0.02 0.00 0.01 0.01 0.01 0.02 0.01 0.00
0.01 0.02 0.04 0.05 0.04 0.05 0.04 0.00 0.00 0.06 0.05 0.00 0.00 0.00 0.00 0.00 0.00 0.00 0.00 0.00 0.00 0.00 0.00 0.00 0.00 0.00 0.00 0.00 0.00 0.01 0.02 0.04 0.04 0.02 0.02 0.02 0.00 0.00 0.01 0.01 0.01 0.00 0.00 0.00
0.02 0.03 0.04 0.03 0.04 0.06 0.01 0.01 0.02 0.03 0.00 0.00 0.00 0.00 0.00 0.00 0.00 0.00 0.00 0.00 0.00 0.00 0.00 0.00 0.00 0.00 0.00 0.00 0.01 0.02 0.03 0.03 0.03 0.03 0.02 0.00 0.01 0.01 0.00 0.00 0.00 0.00 0.00 0.00
0.01 0.01 0.02 0.01 0.04 0.02 0.00 0.01 0.00 0.00 0.00 0.00 0.00 0.00 0.00 0.00 0.00 0.00 0.00 0.00 0.00 0.00 0.00 0.00 0.00 0.00 0.01 0.01 0.01 0.01 0.01 0.01 0.01 0.01 0.01 0.01 0.01 0.00 0.00 0.00 0.00 0.00 0.00 0.00
0.00 0.00 0.00 0.02 0.04 0.01 0.00 0.00 0.00 0.00 0.00 0.00 0.00 0.00 0.00 0.00 0.00 0.00 0.00 0.00 0.00 0.00 0.00 0.00 0.00 0.01 0.01 0.01 0.01 0.01 0.01 0.01 0.01 0.01 0.01 0.00 0.00 0.00 0.00 0.00 0.00 0.00 0.00 0.01
0.00 0.00 0.00 0.03 0.06 0.02 0.01 0.00 0.00 0.00 0.00 0.00 0.00 0.00 0.00 0.00 0.00 0.00 0.00 0.00 0.00 0.00 0.00 0.00 0.00 0.00 0.00 0.01 0.01 0.00 0.00 0.00 0.00 0.00 0.00 0.00 0.00 0.00 0.00 0.00 0.00 0.01 0.00 0.00
0.00 0.00 0.02 0.07 0.02 0.03 0.04 0.00 0.00 0.00 0.00 0.00 0.00 0.00 0.00 0.00 0.00 0.00 0.01 0.00 0.00 0.00 0.01 0.01 0.00 0.00 0.00 0.00 0.00 0.00 0.00 0.00 0.00 0.00 0.00 0.00 0.00 0.00 0.00 0.01 0.00 0.00 0.00 0.00
MSLP
1004.32 1003.46 1003.03 1003.42 1003.94 1003.63 1003.25 1003.02 1002.91 1002.89 1003.91 1004.49 1003.58 1003.96 1004.03 1005.04 1005.44 1005.80 1006.34 1006.54 1009.20 1011.26 1013.36 1014.45 1015.57 1016.26 1017.17 1018.03 1018.65 1018.92 1019.09 1019.53 1019.72 1019.77 1020.08 1020.34 1020.62 1019.79 1020.02 1019.62 1019.09 1018.62 1019.07 1019.41
1003.79 1003.66 1004.70 1004.86 1004.73 1004.30 1003.93 1003.48 1003.24 1003.68 1004.07 1004.30 1003.75 1003.52 1003.68 1005.35 1006.36 1007.23 1007.43 1007.97 1010.60 1013.15 1014.98 1016.21 1016.91 1017.46 1017.98 1018.40 1018.90 1019.30 1019.56 1019.83 1019.98 1020.25 1020.30 1020.26 1020.47 1019.73 1019.38 1019.54 1018.96 1019.02 1019.16 1019.36
1003.78 1004.52 1005.48 1005.13 1004.71 1004.56 1003.84 1004.55 1004.76 1004.66 1004.40 1003.84 1002.79 1003.10 1003.46 1005.66 1006.83 1008.10 1009.04 1010.29 1011.63 1014.01 1016.01 1017.03 1017.80 1018.25 1018.71 1019.17 1019.36 1019.56 1020.05 1020.41 1020.68 1020.48 1020.06 1020.05 1019.84 1019.68 1019.39 1018.78 1018.42 1018.33 1018.99 1019.15
1004.55 1005.32 1005.40 1005.05 1005.03 1005.52 1004.60 1005.47 1005.52 1005.09 1004.59 1003.54 1003.56 1002.99 1003.08 1005.24 1006.98 1008.59 1009.90 1011.64 1013.05 1015.30 1017.06 1017.70 1018.52 1019.13 1019.55 1020.01 1020.05 1020.37 1020.59 1020.61 1020.47 1020.42 1020.21 1020.09 1020.10 1019.85 1019.31 1019.08 1018.60 1018.65 1018.63 1018.60
1005.15 1005.40 1005.34 1005.22 1005.91 1006.35 1005.71 1006.18 1005.61 1004.91 1004.11 1003.52 1002.52 1003.37 1004.20 1005.61 1008.46 1008.65 1011.85 1014.63 1016.59 1018.03 1018.89 1019.66 1020.19 1020.60 1021.04 1021.11 1021.38 1021.52 1021.53 1021.47 1021.35 1020.84 1020.66 1020.70 1020.55 1020.06 1019.18 1018.93 1018.65 1018.61 1018.11 1017.76
1005.80 1006.51 1006.38 1006.49 1006.66 1006.53 1006.59 1006.10 1005.56 1004.09 1002.91 1002.72 1003.32 1004.38 1004.63 1007.34 1008.59 1011.90 1014.42 1016.71 1018.51 1019.74 1020.63 1021.16 1021.42 1021.44 1021.39 1021.44 1021.72 1021.75 1021.49 1021.05 1020.99 1020.80 1020.52 1020.21 1019.71 1019.69 1019.43 1018.89 1018.78 1018.19 1017.75 1017.65
1005.58 1005.82 1006.48 1007.18 1006.67 1006.41 1006.56 1006.29 1005.36 1003.97 1003.54 1003.28 1004.37 1005.35 1006.36 1008.32 1010.18 1012.19 1015.30 1018.18 1019.77 1020.80 1021.37 1021.96 1022.06 1021.97 1021.99 1021.80 1021.46 1020.97 1020.43 1020.53 1020.57 1020.08 1020.00 1019.94 1019.80 1019.67 1019.32 1018.74 1018.39 1018.44 1017.94 1017.78
1005.66 1006.15 1007.22 1007.53 1007.70 1007.72 1007.37 1007.21 1006.54 1005.98 1005.68 1005.28 1004.93 1005.76 1009.39 1011.24 1014.03 1014.27 1017.03 1019.08 1020.47 1021.24 1021.72 1021.92 1022.05 1021.87 1021.61 1021.42 1021.13 1020.92 1020.85 1020.82 1020.47 1019.94 1019.82 1019.71 1019.47 1019.14 1019.01 1018.90 1018.94 1018.66 1018.08 1017.87
1007.15 1006.84 1007.22 1008.19 1008.59 1008.60 1007.99 1007.46 1007.82 1007.84 1006.66 1005.86 1005.54 1007.69 1010.00 1012.34 1015.24 1015.66 1017.44 1019.19 1020.06 1021.05 1021.38 1021.45 1021.44 1021.45 1021.47 1021.34 1020.97 1021.11 1020.85 1020.41 1020.25 1020.04 1019.91 1019.75 1019.72 1019.55 1019.27 1019.26 1019.02 1018.58 1018.21 1017.85
1008.49 1008.51 1007.85 1008.19 1008.69 1008.35 1008.57 1008.92 1008.27 1007.93 1007.90 1007.47 1007.10 1007.93 1010.29 1011.64 1013.15 1015.00 1016.73 1018.17 1019.53 1020.39 1020.90 1021.11 1021.24 1021.40 1021.42 1020.96 1020.58 1020.58 1020.45 1020.37 1020.10 1019.98 1019.98 1019.88 1019.54 1019.25 1019.05 1018.84 1018.74 1018.26 1018.00 1017.78
1009.71 1009.60 1008.95 1008.56 1007.95 1008.74 1008.81 1008.31 1009.36 1009.99 1009.74 1009.09 1009.09 1009.83 1012.24 1012.92 1013.38 1014.30 1016.85 1018.13 1019.34 1020.43 1021.06 1021.38 1021.53 1021.58 1021.42 1021.09 1020.54 1020.62 1020.48 1020.45 1020.28 1020.28 1020.06 1019.92 1019.45 1018.98 1018.66 1018.49 1018.27 1017.99 1017.84 1017.54
1011.21 1011.21 1010.02 1009.21 1008.86 1009.68 1009.85 1009.67 1010.35 1010.74 1010.81 1011.06 1011.46 1011.80 1013.43 1014.08 1014.48 1015.32 1017.43 1018.99 1020.24 1021.38 1021.74 1021.80 1021.79 1021.72 1020.73 1020.85 1021.01 1020.80 1020.95 1021.05 1020.85 1020.50 1020.17 1019.72 1019.06 1019.09 1018.77 1018.40 1018.25 1018.19 1018.02 1017.76
1012.36 1011.50 1010.87 1009.68 1009.61 1010.87 1010.40 1010.39 1010.64 1011.17 1011.99 1011.77 1011.79 1013.69 1015.74 1014.95 1015.74 1016.67 1018.16 1019.87 1021.02 1021.54 1021.60 1021.88 1021.44 1021.09 1021.22 1020.98 1021.00 1021.27 1021.31 1021.12 1020.82 1020.35 1019.60 1019.41 1019.25 1019.12 1018.99 1018.79 1018.50 1018.28 1017.91 1017.52
1013.74 1012.93 1012.13 1010.97 1010.17 1010.37 1010.31 1010.73 1011.03 1011.86 1012.40 1012.02 1012.38 1013.94 1015.21 1015.44 1016.24 1017.87 1019.26 1020.04 1020.98 1021.52 1021.55 1021.37 1021.44 1021.34 1021.36 1021.70 1021.83 1021.54 1021.41 1020.92 1020.40 1019.97 1019.64 1019.20 1019.39 1019.12 1018.61 1018.62 1018.47 1017.89 1017.69 1017.51
1013.94 1013.48 1012.81 1011.91 1011.13 1011.01 1010.56 1010.82 1011.32 1012.37 1012.97 1013.17 1013.94 1015.43 1016.24 1016.59 1017.68 1018.59 1019.41 1020.06 1020.72 1021.16 1021.80 1022.03 1021.84 1021.89 1022.13 1022.20 1021.79 1021.38 1020.96 1020.77 1020.43 1020.05 1019.88 1019.88 1019.21 1018.89 1018.78 1018.67 1018.60 1018.40 1018.21 1018.04
1013.83 1013.70 1013.38 1012.53 1011.74 1011.14 1010.83 1011.64 1012.86 1013.21 1014.06 1015.01 1016.19 1017.07 1017.90 1017.82 1018.68 1019.20 1019.73 1019.59 1020.60 1021.97 1022.18 1022.05 1022.59 1022.64 1022.25 1021.78 1021.43 1021.64 1021.39 1021.25 1020.83 1020.23 1019.78 1019.43 1018.97 1018.67 1018.68 1018.88 1018.80 1018.72 1018.49 1018.27
1014.28 1013.96 1013.82 1012.79 1012.40 1011.92 1012.21 1013.58 1014.03 1014.79 1016.43 1017.96 1017.85 1018.08 1017.77 1018.21 1018.58 1018.83 1019.54 1020.25 1021.17 1021.81 1022.16 1022.84 1022.94 1022.19 1021.93 1021.93 1021.80 1021.97 1021.44 1021.14 1021.00 1020.65 1020.48 1019.66 1019.52 1019.22 1019.35 1019.68 1019.30 1018.98 1018.72 1018.54
1014.73 1014.51 1014.08 1013.45 1013.11 1013.22 1014.38 1014.90 1015.51 1016.41 1017.76 1018.56 1018.88 1017.97 1017.99 1018.23 1018.50 1019.33 1020.70 1021.39 1021.80 1022.59 1023.10 1022.76 1022.18 1022.51 1022.62 1022.51 1022.16 1021.78 1021.43 1021.32 1020.83 1020.56 1020.24 1020.25 1020.01 1019.92 1020.09 1020.01 1019.57 1019.50 1019.25 1019.29
1015.25 1015.05 1014.63 1014.70 1014.77 1014.85 1015.41 1016.02 1016.48 1017.20 1018.32 1018.54 1018.28 1018.28 1018.41 1018.84 1018.88 1020.71 1021.56 1022.24 1023.10 1023.11 1022.86 1022.89 1023.34 1023.10 1022.74 1022.31 1022.14 1021.64 1021.55 1021.00 1021.05 1020.80 1020.52 1020.45 1020.63 1020.39 1020.21 1020.07 1019.94 1020.19 1019.96 1020.15
1015.08 1015.42 1015.77 1015.81 1015.85 1015.85 1016.86 1016.88 1017.25 1017.26 1018.86 1019.29 1019.07 1019.12 1019.46 1019.74 1019.26 1020.33 1022.20 1023.35 1023.32 1023.19 1023.51 1023.51 1023.39 1022.99 1022.79 1022.36 1022.32 1021.91 1021.85 1021.50 1021.27 1021.03 1020.83 1021.08 1021.02 1020.94 1021.12 1020.82 1021.08 1021.12 1020.90 1020.79
1015.08 1015.32 1015.74 1016.22 1016.52 1017.24 1017.30 1017.19 1017.50 1018.28 1019.93 1019.63 1020.01 1020.25 1020.55 1020.84 1021.82 1022.47 1023.03 1023.34 1023.39 1023.90 1023.78 1023.68 1022.99 1023.06 1023.07 1022.76 1022.63 1022.05 1022.19 1021.99 1021.81 1021.51 1021.49 1021.52 1021.69 1021.77 1021.93 1021.87 1021.76 1021.56 1021.25 1020.98
1015.34 1015.84 1016.45 1016.40 1016.79 1018.04 1017.99 1017.82 1018.26 1019.54 1019.93 1020.38 1020.59 1021.27 1021.53 1021.99 1022.70 1023.23 1023.37 1023.48 1024.04 1024.06 1024.05 1023.56 1023.26 1023.28 1023.22 1023.20 1023.05 1022.66 1022.64 1022.48 1022.27 1022.16 1021.82 1022.09 1022.48 1022.50 1022.34 1022.13 1022.09 1021.85 1021.60 1021.26
1015.98 1016.77 1017.01 1017.23 1017.92 1018.61 1018.82 1019.22 1019.80 1019.97 1020.38 1021.13 1021.47 1022.02 1022.26 1022.85 1023.38 1023.55 1024.00 1024.23 1024.45 1024.36 1024.13 1024.09 1024.09 1024.22 1024.06 1023.64 1023.42 1023.43 1023.54 1023.20 1022.70 1022.52 1022.82 1023.07 1022.94 1022.85 1022.65 1022.63 1022.48 1022.33 1022.01 1021.53
1016.23 1016.82 1016.66 1017.09 1018.36 1018.79 1019.50 1020.03 1020.44 1020.81 1021.40 1021.88 1022.26 1022.65 1022.92 1023.39 1023.61 1024.33 1024.47 1024.71 1024.48 1024.52 1024.74 1024.88 1024.62 1024.62 1024.73 1024.63 1024.51 1024.60 1024.47 1024.00 1023.76 1023.72 1023.67 1023.73 1023.42 1023.37 1023.13 1023.03 1022.88 1022.64 1022.48 1022.25
1016.24 1016.82 1016.62 1017.50 1018.45 1019.12 1019.71 1020.30 1021.12 1021.68 1022.07 1022.43 1023.01 1023.36 1023.58 1023.74 1024.26 1024.69 1024.89 1024.73 1024.78 1025.16 1025.41 1025.54 1025.84 1025.97 1025.81 1025.57 1025.49 1025.42 1025.19 1024.91 1024.66 1024.43 1024.25 1023.92 1024.09 1023.92 1023.79 1023.59 1023.77 1023.48 1023.69 1023.60
1016.44 1017.02 1017.48 1018.27 1018.54 1018.86 1020.12 1020.99 1021.61 1022.00 1022.55 1022.92 1023.33 1023.97 1024.06 1024.43 1024.67 1024.65 1025.10 1025.03 1025.12 1025.69 1025.74 1026.29 1026.57 1026.65 1026.47 1026.21 1026.04 1025.85 1025.62 1025.39 1025.13 1024.91 1024.78 1024.77 1024.53 1024.12 1024.05 1024.12 1024.36 1024.43 1024.30 1024.02
Thickness
5808 5796 5792 5793 5794 5797 5796 5791 5785 5797 5791 5777 5782 5775 5780 5779 5776 5771 5769 5775 5748 5736 5725 5719 5709 5699 5686 5676 5667 5662 5654 5647 5642 5636 5631 5624 5620 5624 5619 5617 5614 5617 5608 5604
5799 5782 5789 5793 5791 5788 5787 5785 5785 5789 5788 5777 5777 5776 5788 5771 5761 5757 5758 5758 5737 5718 5704 5694 5688 5682 5674 5668 5659 5652 5645 5638 5632 5627 5623 5617 5609 5613 5609 5604 5608 5606 5603 5599
5787 5784 5788 5784 5783 5777 5789 5767 5762 5761 5776 5785 5788 5773 5779 5761 5758 5749 5745 5739 5726 5710 5688 5682 5674 5668 5662 5653 5648 5643 5635 5626 5619 5618 5615 5612 5604 5600 5598 5601 5605 5604 5593 5587
5786 5789 5779 5779 5773 5772 5769 5772 5765 5760 5756 5746 5779 5743 5776 5756 5740 5734 5729 5722 5714 5695 5679 5673 5664 5655 5648 5639 5635 5629 5624 5617 5614 5610 5605 5600 5592 5588 5591 5590 5592 5588 5584 5581
5771 5773 5774 5770 5762 5768 5759 5768 5763 5765 5762 5763 5773 5754 5756 5764 5715 5707 5707 5687 5672 5662 5654 5645 5640 5633 5627 5623 5615 5610 5605 5600 5597 5596 5585 5582 5579 5582 5587 5584 5583 5579 5579 5577
5773 5783 5774 5766 5769 5767 5767 5760 5761 5774 5780 5753 5756 5749 5760 5721 5728 5696 5680 5665 5650 5641 5633 5627 5623 5620 5616 5612 5605 5600 5598 5593 5585 5586 5582 5578 5580 5576 5573 5574 5572 5573 5572 5567
5773 5769 5772 5769 5755 5768 5756 5742 5723 5734 5740 5745 5758 5739 5736 5726 5722 5704 5674 5648 5636 5627 5621 5613 5610 5607 5602 5599 5596 5596 5596 5589 5582 5581 5577 5573 5571 5566 5563 5564 5562 5556 5556 5554
5753 5738 5750 5756 5745 5732 5736 5733 5716 5687 5702 5721 5758 5724 5676 5698 5679 5677 5658 5637 5625 5617 5611 5608 5602 5598 5596 5593 5591 5588 5581 5574 5572 5571 5567 5563 5561 5558 5553 5549 5545 5541 5541 5538
5735 5741 5761 5746 5746 5738 5726 5723 5736 5705 5729 5726 5745 5717 5708 5687 5644 5649 5648 5630 5620 5613 5608 5605 5601 5596 5589 5585 5582 5574 5569 5568 5563 5559 5554 5550 5545 5542 5538 5533 5529 5527 5525 5522
5738 5712 5748 5743 5741 5739 5724 5727 5704 5718 5679 5681 5720 5716 5681 5688 5683 5654 5640 5636 5621 5612 5606 5598 5593 5586 5580 5578 5575 5569 5563 5557 5552 5547 5540 5533 5531 5530 5526 5522 5516 5516 5514 5511
5733 5720 5723 5737 5730 5712 5716 5718 5703 5696 5694 5680 5680 5690 5675 5672 5675 5663 5636 5627 5615 5602 5594 5586 5580 5574 5570 5567 5566 5558 5551 5542 5536 5528 5522 5517 5517 5516 5515 5512 5509 5507 5504 5503
5715 5703 5695 5711 5729 5722 5712 5702 5692 5667 5663 5676 5670 5670 5667 5660 5659 5651 5628 5613 5600 5584 5577 5574 5568 5562 5567 5559 5551 5544 5531 5520 5514 5511 5507 5504 5507 5503 5501 5499 5497 5493 5491 5491
5703 5696 5677 5695 5708 5695 5690 5698 5695 5684 5671 5661 5664 5643 5638 5644 5643 5633 5613 5596 5584 5578 5573 5565 5565 5562 5552 5548 5539 5528 5517 5508 5501 5496 5495 5492 5489 5486 5484 5482 5482 5481 5482 5483
5690 5685 5677 5671 5689 5696 5682 5683 5688 5670 5649 5664 5669 5655 5640 5637 5627 5612 5598 5592 5578 5569 5567 5564 5556 5551 5543 5531 5520 5513 5501 5494 5487 5482 5478 5478 5474 5473 5476 5473 5472 5475 5475 5474
5682 5663 5674 5683 5690 5687 5688 5683 5680 5659 5659 5650 5653 5625 5624 5623 5609 5601 5594 5586 5575 5568 5557 5549 5545 5537 5526 5517 5510 5502 5491 5479 5470 5465 5463 5461 5465 5466 5466 5464 5463 5463 5463 5462
5679 5657 5664 5662 5680 5684 5681 5675 5659 5658 5649 5641 5623 5609 5609 5613 5601 5592 5585 5587 5573 5552 5547 5544 5530 5521 5516 5513 5506 5492 5482 5470 5461 5459 5458 5458 5460 5462 5461 5458 5456 5455 5455 5454
5660 5657 5650 5648 5669 5670 5652 5646 5645 5640 5625 5600 5597 5600 5612 5601 5596 5593 5585 5576 5562 5552 5543 5528 5520 5521 5515 5506 5499 5485 5481 5472 5461 5455 5451 5454 5454 5454 5451 5446 5448 5450 5449 5448
5651 5651 5655 5647 5658 5626 5641 5650 5640 5624 5608 5598 5592 5608 5606 5601 5598 5589 5572 5560 5552 5538 5526 5525 5524 5513 5503 5496 5491 5485 5481 5472 5466 5460 5456 5451 5450 5447 5444 5442 5445 5443 5442 5438
5655 5649 5641 5629 5627 5637 5633 5631 5624 5612 5599 5605 5605 5604 5601 5595 5590 5566 5560 5549 5535 5530 5527 5521 5509 5503 5497 5496 5489 5487 5481 5477 5466 5461 5457 5452 5446 5446 5445 5444 5442 5437 5436 5431
5656 5652 5636 5629 5615 5608 5614 5627 5628 5625 5579 5596 5598 5593 5586 5582 5579 5567 5548 5533 5530 5527 5518 5511 5505 5501 5494 5494 5487 5485 5478 5474 5468 5463 5459 5451 5447 5445 5440 5441 5435 5431 5429 5426
5638 5640 5629 5619 5615 5610 5622 5626 5624 5583 5574 5593 5587 5581 5573 5565 5556 5548 5539 5532 5528 5517 5513 5506 5506 5498 5490 5489 5484 5484 5476 5471 5466 5463 5458 5453 5447 5443 5438 5436 5434 5433 5432 5430
5634 5625 5616 5622 5613 5588 5619 5615 5598 5590 5591 5584 5580 5569 5562 5556 5546 5537 5533 5529 5518 5513 5507 5505 5501 5494 5488 5484 5480 5479 5474 5469 5465 5461 5460 5454 5447 5444 5443 5442 5440 5439 5438 5438
5622 5624 5618 5617 5604 5610 5609 5599 5594 5592 5583 5573 5567 5560 5555 5545 5537 5533 5525 5518 5513 5509 5505 5499 5493 5486 5481 5481 5478 5475 5469 5466 5466 5464 5457 5452 5451 5449 5450 5448 5446 5445 5446 5449
5634 5633 5624 5618 5605 5603 5596 5591 5587 5581 5572 5565 5559 5552 5546 5537 5534 5522 5518 5512 5512 5507 5498 5491 5490 5485 5479 5475 5471 5468 5465 5465 5463 5460 5458 5455 5455 5454 5454 5454 5454 5455 5456 5457
5630 5626 5622 5610 5603 5598 5592 5586 5576 5569 5564 5557 5550 5543 5537 5533 5525 5517 5512 5511 5508 5500 5491 5487 5480 5474 5472 5471 5467 5464 5464 5463 5462 5461 5461 5462 5458 5458 5458 5459 5457 5461 5457 5457
5629 5616 5604 5592 5603 5598 5583 5578 5571 5563 5556 5551 5544 5534 5532 5525 5518 5516 5508 5508 5505 5494 5490 5481 5475 5471 5469 5468 5467 5466 5465 5465 5465 5465 5464 5462 5463 5465 5464 5462 5462 5461 5462 5463